TimeEST,TemperatureF,Dew PointF,Humidity,Sea Level PressureIn,VisibilityMPH,Wind Direction,Wind SpeedMPH,Gust SpeedMPH,PrecipitationIn,Events,Conditions,WindDirDegrees,DateUTC
12:53 AM,51.1,37.0,59,30.39,10.0,Calm,Calm,-,N/A,,Clear,0,2013-11-05 05:53:00
1:53 AM,50.0,36.0,59,30.40,10.0,Variable,5.8,-,N/A,,Clear,0,2013-11-05 06:53:00
2:53 AM,50.0,36.0,59,30.41,10.0,Calm,Calm,-,N/A,,Clear,0,2013-11-05 07:53:00
3:53 AM,48.9,35.1,59,30.40,10.0,ESE,3.5,-,N/A,,Clear,110,2013-11-05 08:53:00
4:53 AM,48.9,36.0,61,30.41,10.0,ESE,5.8,-,N/A,,Clear,110,2013-11-05 09:53:00
5:53 AM,48.0,36.0,63,30.42,10.0,SE,5.8,-,N/A,,Clear,140,2013-11-05 10:53:00
6:53 AM,46.0,35.1,66,30.43,10.0,SE,8.1,-,N/A,,Clear,140,2013-11-05 11:53:00
7:53 AM,46.9,35.1,63,30.44,10.0,ESE,6.9,-,N/A,,Clear,120,2013-11-05 12:53:00
8:53 AM,51.1,34.0,52,30.46,10.0,SE,8.1,-,N/A,,Scattered Clouds,140,2013-11-05 13:53:00
9:53 AM,53.1,34.0,48,30.45,10.0,ESE,8.1,-,N/A,,Overcast,120,2013-11-05 14:53:00
10:53 AM,55.9,34.0,44,30.44,10.0,SE,6.9,-,N/A,,Mostly Cloudy,140,2013-11-05 15:53:00
11:53 AM,59.0,35.1,41,30.42,10.0,East,8.1,-,N/A,,Overcast,100,2013-11-05 16:53:00
12:53 PM,61.0,35.1,38,30.39,10.0,SE,6.9,-,N/A,,Mostly Cloudy,140,2013-11-05 17:53:00
1:53 PM,64.0,37.0,37,30.35,10.0,East,6.9,-,N/A,,Overcast,90,2013-11-05 18:53:00
2:53 PM,64.0,37.0,37,30.33,10.0,ENE,3.5,-,N/A,,Overcast,60,2013-11-05 19:53:00
3:53 PM,64.0,37.9,38,30.32,10.0,SSE,8.1,-,N/A,,Overcast,150,2013-11-05 20:53:00
4:53 PM,63.0,37.9,40,30.31,10.0,SE,3.5,-,N/A,,Scattered Clouds,140,2013-11-05 21:53:00
5:53 PM,57.9,39.0,49,30.31,10.0,SSE,4.6,-,N/A,,Partly Cloudy,160,2013-11-05 22:53:00
6:53 PM,57.0,37.9,49,30.32,10.0,ESE,3.5,-,N/A,,Clear,120,2013-11-05 23:53:00
7:53 PM,55.9,37.0,49,30.33,10.0,Calm,Calm,-,N/A,,Clear,0,2013-11-06 00:53:00
8:53 PM,57.0,35.1,44,30.34,10.0,East,3.5,-,N/A,,Overcast,100,2013-11-06 01:53:00
9:53 PM,57.0,37.9,49,30.34,10.0,East,6.9,-,N/A,,Overcast,90,2013-11-06 02:53:00
10:53 PM,55.0,41.0,59,30.33,10.0,ESE,5.8,-,N/A,,Partly Cloudy,110,2013-11-06 03:53:00
11:53 PM,55.9,42.1,60,30.32,10.0,ESE,6.9,-,N/A,,Overcast,120,2013-11-06 04:53:00